Location: Unspecified
(0.0000°N, 0.0000°E)
Time: 10:43:31
(UTC+02:00)

Cosmos 1125 Rocket - Visible Passes

Search period start: 21 October 2014 00:00
Search period end: 30 October 2014 23:00
Orbit: 759 x 781 km, 74.0° (Epoch: 20 October)

Date Brightness Start Highest point End Pass type
(mag) Time Alt. Az. Time Alt. Az. Time Alt. Az.
21 Oct 6.3 06:53:46 10° NNE 06:57:27 19° ENE 07:01:09 10° ESE visible
22 Oct 6.3 20:32:29 10° WSW 20:35:43 17° WNW 20:38:57 10° NW visible
24 Oct 5.0 06:45:15 10° N 06:50:09 40° ENE 06:55:04 10° SSE visible
25 Oct 6.1 06:10:00 10° NNE 06:13:46 20° ENE 06:17:34 10° SE visible
26 Oct 3.8 06:14:09 10° NNW 06:19:12 48° WSW 06:24:17 10° S visible
27 Oct 3.6 05:37:34 10° N 05:42:49 84° ENE 05:48:08 10° SSE visible
28 Oct 4.7 05:01:32 10° N 05:06:27 41° ENE 05:11:25 10° SSE visible
29 Oct 5.8 04:26:20 10° NNE 04:30:05 21° ENE 04:33:57 10° SE visible
29 Oct 4.7 06:07:47 10° NW 06:11:53 23° WSW 06:16:01 10° SSW visible
30 Oct 3.8 05:32:28 22° NW 05:35:30 46° WSW 05:40:34 10° S visible
